Regional Weather Roundup
Issued by NWS

Home | Current Version | Previous Version | Text Only | Print | Product List | Glossary Off
Versions: 1 2 3 4 5 6 7 8 9 10 11 12 13 14 15 16 17 18 19 20 21 22 23 24 25 26 27 28 29 30 31 32 33 34 35 36 37 38 39 40 41 42 43 44 45 46 47 48 49 50

000
ASUS43 KOAX 021902
RWRNE

WEATHER ROUNDUP FOR NEBRASKA
NATIONAL WEATHER SERVICE OMAHA NE
200 PM CDT TUE SEP 02 2014

NOTES: SATELLITE DATA IS BEING USED TO AUGMENT CLOUD COVER ABOVE
       12000 FEET.
       "FAIR" INDICATES FEW OR NO CLOUDS BELOW 12,000 FEET WITH NO
       SIGNIFICANT WEATHER AND/OR OBSTRUCTIONS TO VISIBILITY.

  * THESE STATIONS DO NOT REPORT WEATHER SUCH AS RAIN...SNOW OR FOG.

NEZ001>004-019>022-054>056-022000-
NEBRASKA PANHANDLE

CITY           SKY/WX    TMP DP  RH WIND       PRES   REMARKS
SCOTTSBLUFF    SUNNY     84  39  20 W10       29.97F
ALLIANCE       SUNNY     80  47  31 SW16      29.97F
CHADRON        SUNNY     81  45  28 W14       29.92F
KIMBALL        SUNNY     80  44  27 SW6G16    30.02F
SIDNEY         SUNNY     76  52  43 S14G20    30.04F
$$

NEZ057>060-069>072-079>082-022000-
SOUTHWEST NEBRASKA

CITY           SKY/WX    TMP DP  RH WIND       PRES   REMARKS
NORTH PLATTE   MOSUNNY   77  62  59 SW12G17   30.00F
IMPERIAL       MOSUNNY   80  59  48 S14G24    30.01F
LEXINGTON      SUNNY     78  60  53 S5        30.01F
MCCOOK         SUNNY     83  57  41 S9        30.01F
OGALLALA       SUNNY     76  59  55 S14       30.00F
$$

NEZ005>010-023>029-035>040-094-022000-
NORTH CENTRAL NEBRASKA

CITY           SKY/WX    TMP DP  RH WIND       PRES   REMARKS
VALENTINE      SUNNY     80  45  28 SW13G22   29.94F
AINSWORTH      SUNNY     77  48  35 SW10      29.97F
BROKEN BOW     SUNNY     80  55  42 SW12      30.00F
O`NEILL        SUNNY     79  54  42 SW10      29.97F
ORD            SUNNY     74  56  53 SW12      29.99F
THEDFORD       SUNNY     79  54  42 S16G22    29.99F
$$

NEZ041-046>049-061>064-073>077-083>087-022000-
SOUTH CENTRAL NEBRASKA

CITY           SKY/WX    TMP DP  RH WIND       PRES   REMARKS
GRAND ISLAND   SUNNY     80  57  45 SW12      30.01F
AURORA         SUNNY     76  57  51 SW7       30.01S
HASTINGS       SUNNY     78  56  46 MISG      30.01F
HEBRON         SUNNY     79  54  41 SW3       30.02S
HOLDREGE       SUNNY     78  58  50 S8        30.02S
KEARNEY *      SUNNY     77  59  53 SW10      30.02S
YORK           SUNNY     75 N/A N/A SW7       30.02S
$$

NEZ011>018-030>034-042>045-022000-
NORTHEAST NEBRASKA

CITY           SKY/WX    TMP DP  RH WIND       PRES   REMARKS
NORFOLK        SUNNY     74  57  55 VRB6      29.99S
ALBION         SUNNY     74  55  51 SW9       30.00F
BLAIR          SUNNY     75  58  55 SW5       30.01R
FREMONT        SUNNY     76  57  51 W3        30.01S
TEKAMAH        SUNNY     76  60  57 SW8       29.99S
WAYNE          SUNNY     75  59  56 SW5       29.98S
$$

NEZ050>053-065>068-078-088>093-022000-
SOUTHEAST NEBRASKA

CITY           SKY/WX    TMP DP  RH WIND       PRES   REMARKS
LINCOLN        SUNNY     78  56  46 VRB7      30.02S
OMAHA EPPLEY   MOSUNNY   78  55  44 VRB6      30.00R
BEATRICE       SUNNY     79  59  49 S5        30.02S
FALLS CITY     SUNNY     82  60  47 NW8       30.00F
NEBRASKA CITY  SUNNY     78  58  48 W3        30.01S
PLATTSMOUTH    SUNNY     78  56  45 W5        30.01S
$$

NEZ044-045-051>053-067-022000-
OMAHA AREA

CITY           SKY/WX    TMP DP  RH WIND       PRES   REMARKS
OMAHA EPPLEY   MOSUNNY   78  55  44 VRB6      30.00R
BLAIR          SUNNY     75  58  55 SW5       30.01R
FREMONT        SUNNY     76  57  51 W3        30.01S
MILLARD        SUNNY     76  57  51 W3        30.01R HAZE
OFFUTT AFB     SUNNY     77  60  54 SW6       30.00R
PLATTSMOUTH    SUNNY     78  56  45 W5        30.01S
WAHOO          FAIR      76  54  46 CALM      30.00S
$$


USA.gov is the U.S. government's official web portal to all federal, state and local government web resources and services.